SCP
0 0 0 0 0 0 0 0 0 0 0 0 0 0 0 0 -0 0 0 0 0 0 0 0 0 0 0 0 0 0 0 0 0 0 0 0 0 0 0 0 0 0 0 0 0
0 0 0 0 0 0 0 0 0 0 0 0 0 0 0 0 0 0 0 0 0 0 0 0 0 0 0 0 0 0 0 0 0 0 0 0 0 0 0 0 0 0 0 0 0
0 0 0 0 0 0 0 0 0 0 0 0 0 0 0 0 0 0 0 0 0 0 0 0 0 0 0 0 0 0 0 0 0 0 0 0 0 0 0 0 0 0 0 0 0
0 0 0 0 0 0 0 0 0 0 0 0 0 0 0 0 0 0 0 0 0 0 0 0 0 0 0 0 0 0 0 0 0 0 0 0 0 0 0 0 0 0 0 0 0
0 0 0 0 0 0 0 0 0 0 0 0 0 0 0 0 0 0 0 0 0 0 0 0 0 0 0 0 0 0 0 0 0 0 0 0 0 0 0 0 0 0 0 0 0
0 0 0 0 0 0 0 0 0 0 0 0 0 0 0 0 0 0 0 0 0 0 0 0 0 0 0 0 0 0 0 0 0 0 0 0 0 0 0 0 0 0 0 0 0
0 0 0 0 0 0 0 0 0 0 0 0 0 0 0 0 0 0 0 0 0 0 0 0 0 0 0 0 0 0 0 0 0 0 0 0 0 0 0 0 0 0 0 -0 -0
0 0 0 0 0 0 0 0 0 0 0 0 0 0 0 0 0 0 0 0 0 0 0 0 0 0 0 0 0 0 0 0 0 0 0 0 0 0 0 0 0 0 0 0 0
0 0 0 0 0 0 0 0 0 0 0 0 0 0 0 0 0 0 0 0 0 0 0 0 0 0 0 0 0 0 0 0 0 0 0 0 0 0 0 0 0 0 0 0 0
0 0 0 0 0 0 0 0 0 0 0 0 0 0 0 0 0 0 0 0 0 0 0 0 0 0 0 0 0 0 0 0 0 0 0 0 0 0 0 0 0 0 0 0 0
0 0 0 0 0 0 0 0 0 0 0 0 0 0 0 0 0 0 0 0 0 0 0 0 0 0 0 0 0 0 0 0 0 0 0 0 0 0 0 0 0 0 0 0 0
0 0 0 0 0 0 0 0 0 0 0 0 0 0 0 0 0 0 0 0 0 0 0 0 0 0 0 0 0 0 0 0 0 0 0 0 0 0 0 0 0 0 0 0 0
0 0 0 0 0 0 0 0 0 0 0 0 0 0 0 0 0 0 0 0 0 0 0 0 0 0 0 0 0 0 0 0 0 0 0 0 0 -0 0 0 0 0 0 0 0
0 0 0 0 0 0 0 0 0 0 0 0 0 0 0 0 0 0 0 0 0 0 0 0 0 0 0 0 0 0 0 0 0 0 0 0 0 0 0 0 0 0 0 0 0
0 0 0 0 0 0 0 0 0 0 0 0 0 0 0 0 0 0 0 0 0 0 0 0 0 0 0 0 0 0 0 0 0 0 0 0 0 0 0 0 0 0 0 0 0
0 0 0 0 0 0 0 0 0 0 0 0 0 0 0 0 0 0 0 0 0 0 0 0 0 0 0 0 0 0 0 0 0 0 0 0 0 0 0 0 0 0 0 0 0
0 0 0 0 0 0 0 0 0 0 0 0 0 0 0 0 0 0 0 0 0 0 0 0 0 0 0 0 0 0 0 0 0 0 0 0 0 0 0 0 0 0 0 0 0
0 0 0 0 0 0 0 0 0 0 0 0 0 0 0 0 0 0 0 0 0 0 0 0 0 0 0 0 0 0 0 0 0 0 0 0 0 0 0 0 0 0 0 0 0
0 0 0 0 0 0 0 0 0 0 0 0 0 0 0 0 0 0 0 0 0 0 0 0 0 0 0 0 0 0 0 0 0 0 0 0 0 0 0 0 0 0 0 0 0
0 0 0 0 0 0 0 0 0 0 0 0 0 0 0 0 0 0 0 0 0 0 0 0 0 0 0 0 0 0 0 0 0 0 0 0 0 0 0 0 0 0 0 0 0
0 0 0 0 0 0 0 0 0 0 0 0 0 0 0 0 0 0 0 0 0 0 0 0 0 0 0 0 0 0 0 0 0 0 0 0 0 0 0 0 0 0 0 0 0
0 0 0 0 0 0 0 0 0 0 0 0 0 0 0 0 0 0 0 0 0 0 0 0 0 0 0 0 0 0 0 0 0 0 0 0 0 0 0 0 0 0 0 0 0
0 0 0 0 0 0 0 0 0 0 0 0 0 0 0 0 0 0 0 0 0 0 0 0 0 0 0 0 0 0 0 0 0 0 0 0 0 0 0 0 0 0 -0 0 0
0 0 0 0 0 0 0 0 0 0 0 0 0 0 0 0 0 0 0 0 0 0 0 0 0 0 0 0 0 0 0 0 0 0 0 0 0 0 0 0 0 0 0 0 0
0 0 0 0 0 0 0 0 0 0 0 0 0 0 0 0 0 0 0 0 0 0 0 0 0 0 0 0 0 0 0 0 0 0 0 0 0 0 0 0 0 0 0 0 0
0 0 0 0 0 0 0 0 0 0 0 0 0 0 0 0 0 0 0 0 0 0 0 0 0 0 0 0 0 0 0 0 0 0 0 0 0 0 0 0 0 0 0 0 0
0 0 0 0 0 0 0 0 0 0 0 0 0 0 0 0 0 0 0 0 0 0 0 0 0 0 0 0 0 0 0 0 0 0 0 0 0 0 0 0 0 0 0 0 0
Wind_Speed_500mb
6 5 5 6 6 7 9 10 11 12 13 15 17 19 20 22 25 29 30 11 10 12 9 8 7 2 1 2 3 2 7 5 7 10 11 12 10 3 7 16 27 14 28 37 44
9 9 8 9 10 11 12 12 13 15 16 17 19 20 23 26 29 21 8 7 3 4 4 5 5 3 0 4 7 7 6 11 5 2 7 20 7 16 11 28 53 48 39 18 24
13 13 13 13 13 14 16 16 17 18 19 19 20 22 22 25 24 3 4 5 6 5 3 7 8 11 5 7 13 11 10 8 22 34 30 17 31 21 14 11 50 50 50 41 46
18 18 17 17 17 17 17 18 18 20 20 21 21 21 20 18 6 2 3 6 9 9 12 11 12 7 6 6 20 6 26 33 26 31 27 13 22 24 31 51 54 56 52 52 50
23 22 21 20 19 19 19 18 18 21 22 23 22 22 19 11 17 23 22 21 19 17 12 13 14 14 5 7 12 9 11 14 29 31 41 40 28 25 53 57 44 39 40 46 38
25 23 21 20 20 21 20 19 19 20 21 22 21 20 17 12 21 21 20 18 14 13 12 20 9 6 13 10 5 10 13 24 29 50 50 22 31 13 41 41 40 29 33 30 35
25 23 22 22 21 20 19 19 20 20 20 19 19 19 22 27 24 21 20 17 17 15 17 14 22 19 4 7 6 12 10 15 38 30 13 7 7 17 38 37 24 43 50 62 55
27 26 23 21 18 17 17 18 19 20 20 21 20 18 14 17 16 17 21 19 16 18 20 22 21 22 9 10 14 9 3 7 11 7 6 4 13 18 29 35 50 58 58 42 17
27 25 23 20 16 16 18 20 19 21 22 19 14 12 9 9 10 10 9 9 3 13 15 14 17 8 2 8 8 5 6 9 17 16 5 7 12 28 29 49 57 48 35 17 12
28 26 23 19 15 18 18 21 19 20 17 12 14 7 12 10 10 9 6 9 6 9 9 7 5 3 6 7 9 9 7 8 11 12 16 14 17 17 41 47 52 42 10 24 30
30 26 23 15 16 18 16 12 10 5 14 15 9 14 14 15 13 13 10 17 12 7 8 9 8 12 21 18 10 8 9 9 10 16 8 14 13 27 52 28 42 17 44 42 42
32 28 23 18 15 14 9 5 5 4 16 29 39 43 38 36 8 10 20 16 12 10 11 7 13 22 11 10 10 5 9 13 9 6 3 12 23 30 28 18 39 47 45 40 39
34 30 25 21 13 12 10 8 5 5 5 17 17 14 15 19 12 23 29 17 11 11 15 14 14 11 10 10 7 9 10 8 15 6 10 5 13 10 11 35 47 47 41 39 43
40 34 27 21 13 14 14 10 4 8 3 9 8 6 9 13 5 17 27 12 9 18 10 12 14 12 9 10 14 10 11 14 10 6 7 6 9 13 15 13 16 32 40 39 41
41 38 31 29 16 21 10 8 5 3 8 3 7 11 11 10 14 4 17 12 9 10 10 10 13 8 6 14 16 12 7 2 4 6 4 8 3 12 17 6 9 19 39 38 38
47 49 43 40 35 26 18 12 4 6 14 6 10 10 7 9 7 10 9 4 2 1 5 11 4 9 14 9 9 8 6 8 3 6 5 14 13 8 8 14 13 23 36 36 33
57 51 48 44 41 34 26 16 5 9 2 9 7 9 8 10 7 8 9 7 9 6 7 5 10 6 11 4 10 8 8 5 6 2 11 5 0 13 8 14 27 31 39 30 26
58 52 52 44 34 36 38 5 18 13 10 7 8 11 10 14 10 14 9 4 11 4 5 8 11 11 3 6 9 9 12 8 10 6 7 11 8 8 15 45 53 46 38 27 23
61 52 49 45 41 38 34 13 14 10 6 14 6 8 10 10 9 11 15 11 10 17 15 9 8 3 5 4 9 7 8 7 9 0 2 8 3 10 15 20 35 40 31 24 17
59 43 37 46 40 41 9 12 11 5 4 7 11 14 13 10 14 14 14 7 11 3 2 6 4 2 4 3 6 4 5 4 5 4 11 9 8 8 11 20 16 19 27 17 7
50 27 24 31 35 9 4 7 8 17 4 2 8 7 8 6 14 9 9 3 9 7 11 7 8 5 6 5 10 2 3 2 6 9 8 4 10 11 16 21 19 21 18 16 16
25 6 31 42 13 11 16 16 21 16 13 11 6 7 6 3 3 11 13 2 16 20 14 7 8 6 14 8 7 9 10 10 7 8 6 3 14 11 24 32 31 26 31 28 24
33 13 36 47 9 13 7 9 11 10 11 14 16 13 11 14 8 13 11 5 17 8 15 11 2 4 18 8 4 3 6 8 6 4 10 8 15 6 19 20 22 26 30 36 27
22 8 14 36 25 8 13 12 13 22 10 12 8 12 8 8 9 8 7 4 7 11 14 8 7 13 16 8 6 5 9 3 10 4 5 17 15 36 30 12 26 26 27 32 30
15 8 15 10 18 15 9 8 26 16 15 27 7 15 11 10 7 10 6 6 9 16 7 8 11 9 4 3 5 7 21 24 14 24 15 41 30 39 27 11 16 16 20 28 29
17 11 15 2 21 28 21 12 13 16 18 11 13 15 15 15 15 13 10 6 8 8 7 2 4 5 10 6 12 18 36 24 34 31 31 39 42 32 7 7 15 22 23 22 19
26 20 13 18 13 17 16 29 16 16 4 6 27 10 9 7 21 19 15 15 9 12 8 11 10 7 12 4 8 15 25 35 23 26 14 19 22 3 10 14 21 19 16 11 15
Wind_Direction_500mb
288 301 316 324 331 333 332 332 329 327 328 329 327 326 326 325 322 316 313 296 280 266 251 226 218 177 107 110 325 347 57 271 259 23 315 9 17 349 299 280 292 276 275 289 293
273 284 294 303 309 310 310 311 313 314 318 319 319 320 323 326 325 323 346 16 47 101 158 170 118 62 234 230 170 123 121 236 180 126 308 315 343 324 311 313 293 294 288 284 329
273 278 287 291 293 295 298 301 302 305 307 309 312 313 319 325 329 48 58 81 95 101 133 167 179 217 219 222 196 187 195 223 297 320 326 310 314 314 316 291 280 291 296 294 303
268 275 279 283 286 287 287 293 299 303 305 306 307 305 309 315 301 219 286 286 294 262 268 231 210 191 217 224 217 198 229 243 274 292 310 279 290 292 282 274 291 289 290 290 289
269 274 278 280 281 283 288 295 299 302 304 303 303 302 299 276 256 263 272 278 279 258 249 202 197 204 239 247 325 224 249 288 291 293 284 288 279 269 282 299 312 311 299 289 289
266 268 270 273 277 281 288 293 297 297 299 303 302 299 282 239 268 269 273 269 250 233 223 191 185 221 286 246 201 309 315 300 297 282 279 260 276 231 275 312 318 318 319 324 317
260 259 261 265 270 279 289 297 301 302 302 299 295 289 270 268 261 266 272 270 256 237 215 203 235 262 329 323 317 324 327 315 273 270 232 218 284 230 272 306 309 306 309 321 329
253 256 256 256 262 274 284 292 296 295 295 291 284 274 255 258 265 267 265 264 249 234 230 214 230 248 251 298 346 313 31 314 285 26 277 117 258 275 299 300 302 297 307 332 20
239 243 245 250 256 270 285 291 290 289 286 278 266 241 254 234 245 233 231 227 252 217 226 230 233 217 232 89 3 311 240 227 322 346 142 175 236 252 283 285 283 296 326 72 73
236 237 240 247 258 276 291 294 289 279 261 247 231 246 235 229 221 217 187 202 184 153 127 150 150 89 30 106 222 220 255 295 278 302 343 303 267 267 283 281 289 296 67 81 70
236 238 240 242 264 281 290 295 291 249 235 227 227 247 271 253 250 264 215 174 148 154 150 186 105 205 220 205 216 262 232 240 251 276 336 289 300 298 285 295 303 48 99 87 73
232 235 235 238 268 271 258 248 260 256 299 263 259 257 261 263 234 192 163 167 170 196 135 74 218 226 224 238 233 259 278 277 293 274 329 302 294 271 324 62 90 90 92 94 90
230 233 236 241 258 233 229 231 259 309 276 286 235 226 209 246 221 194 182 178 183 201 191 172 218 180 187 261 310 257 229 225 227 288 291 288 296 275 50 83 84 90 97 88 80
233 232 232 235 232 208 215 212 255 314 4 250 208 200 184 174 218 179 189 187 214 207 227 238 244 221 243 250 176 249 233 221 235 81 224 77 281 286 141 104 91 102 98 93 87
233 231 231 212 186 197 186 194 243 332 300 188 154 153 156 162 144 156 187 190 199 192 120 247 179 172 177 220 165 217 52 260 209 202 14 268 151 261 117 163 141 116 101 90 85
236 236 227 207 202 204 214 216 190 72 244 176 140 169 136 189 167 127 151 189 234 113 213 219 158 183 210 236 183 124 44 309 66 111 284 224 187 270 196 182 135 111 99 92 83
232 238 219 208 210 209 203 174 151 218 226 178 186 161 197 178 180 172 160 182 164 114 248 260 203 204 188 163 26 83 77 319 0 39 227 286 240 254 22 97 133 121 108 97 87
211 211 204 195 200 188 180 161 218 205 217 134 135 165 187 158 195 186 165 235 258 206 207 202 320 153 150 168 187 178 162 162 233 222 273 321 259 341 50 91 107 110 108 100 84
193 185 188 190 189 183 168 206 205 206 180 148 117 158 220 221 165 148 208 193 217 180 182 186 243 22 64 148 146 180 182 172 117 2 268 231 260 98 91 93 106 115 113 105 92
186 162 173 177 179 180 195 224 205 170 63 99 191 179 200 227 169 181 197 180 170 164 154 175 321 242 189 107 24 153 172 74 22 210 232 266 248 207 166 141 129 123 122 137 143
170 150 174 165 165 134 198 245 272 257 78 148 224 246 199 191 183 204 210 262 148 138 104 122 127 249 114 188 184 79 253 254 152 166 199 248 260 174 149 153 143 151 170 201 209
167 121 185 167 145 193 204 189 207 174 170 210 168 205 175 73 264 213 220 180 158 144 145 181 160 212 219 249 166 195 228 182 166 241 237 187 267 139 142 149 151 195 244 234 226
150 134 177 185 193 205 213 192 230 182 178 179 196 192 185 188 224 203 181 348 141 111 157 168 187 14 332 20 38 149 170 134 122 110 233 231 259 204 141 174 232 249 244 219 202
152 145 166 211 221 177 201 214 221 205 169 190 194 195 164 218 229 224 137 193 96 113 122 107 151 169 217 163 121 282 288 71 132 148 223 241 273 274 278 267 279 256 240 204 190
168 203 176 194 210 214 173 210 207 197 194 195 221 188 165 212 233 214 170 105 46 146 74 123 192 203 256 334 111 229 267 281 198 241 219 263 261 264 287 294 191 184 162 179 198
166 161 185 187 191 194 205 218 210 203 164 197 202 182 184 199 189 204 134 169 188 207 139 25 204 80 313 263 260 259 260 261 255 251 247 251 261 271 270 201 181 189 184 193 203
207 204 172 190 175 185 213 210 201 167 62 176 200 162 148 132 117 115 110 116 131 157 142 140 130 89 267 233 47 305 245 240 238 235 229 233 247 184 261 216 170 166 183 207 248
Wind_Speed_850mb
6 5 5 6 6 7 9 10 11 12 13 15 17 19 20 22 25 29 30 11 10 12 9 8 7 2 1 2 3 2 7 5 7 10 11 12 10 3 7 16 27 14 28 37 44
9 9 8 9 10 11 12 12 13 15 16 17 19 20 23 26 29 21 8 7 3 4 4 5 5 3 0 4 7 7 6 11 5 2 7 20 7 16 11 28 53 48 39 18 24
13 13 13 13 13 14 16 16 17 18 19 19 20 22 22 25 24 3 4 5 6 5 3 7 8 11 5 7 13 11 10 8 22 34 30 17 31 21 14 11 50 50 50 41 46
18 18 17 17 17 17 17 18 18 20 20 21 21 21 20 18 6 2 3 6 9 9 12 11 12 7 6 6 20 6 26 33 26 31 27 13 22 24 31 51 54 56 52 52 50
23 22 21 20 19 19 19 18 18 21 22 23 22 22 19 11 17 23 22 21 19 17 12 13 14 14 5 7 12 9 11 14 29 31 41 40 28 25 53 57 44 39 40 46 38
25 23 21 20 20 21 20 19 19 20 21 22 21 20 17 12 21 21 20 18 14 13 12 20 9 6 13 10 5 10 13 24 29 50 50 22 31 13 41 41 40 29 33 30 35
25 23 22 22 21 20 19 19 20 20 20 19 19 19 22 27 24 21 20 17 17 15 17 14 22 19 4 7 6 12 10 15 38 30 13 7 7 17 38 37 24 43 50 62 55
27 26 23 21 18 17 17 18 19 20 20 21 20 18 14 17 16 17 21 19 16 18 20 22 21 22 9 10 14 9 3 7 11 7 6 4 13 18 29 35 50 58 58 42 17
27 25 23 20 16 16 18 20 19 21 22 19 14 12 9 9 10 10 9 9 3 13 15 14 17 8 2 8 8 5 6 9 17 16 5 7 12 28 29 49 57 48 35 17 12
28 26 23 19 15 18 18 21 19 20 17 12 14 7 12 10 10 9 6 9 6 9 9 7 5 3 6 7 9 9 7 8 11 12 16 14 17 17 41 47 52 42 10 24 30
30 26 23 15 16 18 16 12 10 5 14 15 9 14 14 15 13 13 10 17 12 7 8 9 8 12 21 18 10 8 9 9 10 16 8 14 13 27 52 28 42 17 44 42 42
32 28 23 18 15 14 9 5 5 4 16 29 39 43 38 36 8 10 20 16 12 10 11 7 13 22 11 10 10 5 9 13 9 6 3 12 23 30 28 18 39 47 45 40 39
34 30 25 21 13 12 10 8 5 5 5 17 17 14 15 19 12 23 29 17 11 11 15 14 14 11 10 10 7 9 10 8 15 6 10 5 13 10 11 35 47 47 41 39 43
40 34 27 21 13 14 14 10 4 8 3 9 8 6 9 13 5 17 27 12 9 18 10 12 14 12 9 10 14 10 11 14 10 6 7 6 9 13 15 13 16 32 40 39 41
41 38 31 29 16 21 10 8 5 3 8 3 7 11 11 10 14 4 17 12 9 10 10 10 13 8 6 14 16 12 7 2 4 6 4 8 3 12 17 6 9 19 39 38 38
47 49 43 40 35 26 18 12 4 6 14 6 10 10 7 9 7 10 9 4 2 1 5 11 4 9 14 9 9 8 6 8 3 6 5 14 13 8 8 14 13 23 36 36 33
57 51 48 44 41 34 26 16 5 9 2 9 7 9 8 10 7 8 9 7 9 6 7 5 10 6 11 4 10 8 8 5 6 2 11 5 0 13 8 14 27 31 39 30 26
58 52 52 44 34 36 38 5 18 13 10 7 8 11 10 14 10 14 9 4 11 4 5 8 11 11 3 6 9 9 12 8 10 6 7 11 8 8 15 45 53 46 38 27 23
61 52 49 45 41 38 34 13 14 10 6 14 6 8 10 10 9 11 15 11 10 17 15 9 8 3 5 4 9 7 8 7 9 0 2 8 3 10 15 20 35 40 31 24 17
59 43 37 46 40 41 9 12 11 5 4 7 11 14 13 10 14 14 14 7 11 3 2 6 4 2 4 3 6 4 5 4 5 4 11 9 8 8 11 20 16 19 27 17 7
50 27 24 31 35 9 4 7 8 17 4 2 8 7 8 6 14 9 9 3 9 7 11 7 8 5 6 5 10 2 3 2 6 9 8 4 10 11 16 21 19 21 18 16 16
25 6 31 42 13 11 16 16 21 16 13 11 6 7 6 3 3 11 13 2 16 20 14 7 8 6 14 8 7 9 10 10 7 8 6 3 14 11 24 32 31 26 31 28 24
33 13 36 47 9 13 7 9 11 10 11 14 16 13 11 14 8 13 11 5 17 8 15 11 2 4 18 8 4 3 6 8 6 4 10 8 15 6 19 20 22 26 30 36 27
22 8 14 36 25 8 13 12 13 22 10 12 8 12 8 8 9 8 7 4 7 11 14 8 7 13 16 8 6 5 9 3 10 4 5 17 15 36 30 12 26 26 27 32 30
15 8 15 10 18 15 9 8 26 16 15 27 7 15 11 10 7 10 6 6 9 16 7 8 11 9 4 3 5 7 21 24 14 24 15 41 30 39 27 11 16 16 20 28 29
17 11 15 2 21 28 21 12 13 16 18 11 13 15 15 15 15 13 10 6 8 8 7 2 4 5 10 6 12 18 36 24 34 31 31 39 42 32 7 7 15 22 23 22 19
26 20 13 18 13 17 16 29 16 16 4 6 27 10 9 7 21 19 15 15 9 12 8 11 10 7 12 4 8 15 25 35 23 26 14 19 22 3 10 14 21 19 16 11 15
Wind_Direction_850mb
288 301 316 324 331 333 332 332 329 327 328 329 327 326 326 325 322 316 313 296 280 266 251 226 218 177 107 110 325 347 57 271 259 23 315 9 17 349 299 280 292 276 275 289 293
273 284 294 303 309 310 310 311 313 314 318 319 319 320 323 326 325 323 346 16 47 101 158 170 118 62 234 230 170 123 121 236 180 126 308 315 343 324 311 313 293 294 288 284 329
273 278 287 291 293 295 298 301 302 305 307 309 312 313 319 325 329 48 58 81 95 101 133 167 179 217 219 222 196 187 195 223 297 320 326 310 314 314 316 291 280 291 296 294 303
268 275 279 283 286 287 287 293 299 303 305 306 307 305 309 315 301 219 286 286 294 262 268 231 210 191 217 224 217 198 229 243 274 292 310 279 290 292 282 274 291 289 290 290 289
269 274 278 280 281 283 288 295 299 302 304 303 303 302 299 276 256 263 272 278 279 258 249 202 197 204 239 247 325 224 249 288 291 293 284 288 279 269 282 299 312 311 299 289 289
266 268 270 273 277 281 288 293 297 297 299 303 302 299 282 239 268 269 273 269 250 233 223 191 185 221 286 246 201 309 315 300 297 282 279 260 276 231 275 312 318 318 319 324 317
260 259 261 265 270 279 289 297 301 302 302 299 295 289 270 268 261 266 272 270 256 237 215 203 235 262 329 323 317 324 327 315 273 270 232 218 284 230 272 306 309 306 309 321 329
253 256 256 256 262 274 284 292 296 295 295 291 284 274 255 258 265 267 265 264 249 234 230 214 230 248 251 298 346 313 31 314 285 26 277 117 258 275 299 300 302 297 307 332 20
239 243 245 250 256 270 285 291 290 289 286 278 266 241 254 234 245 233 231 227 252 217 226 230 233 217 232 89 3 311 240 227 322 346 142 175 236 252 283 285 283 296 326 72 73
236 237 240 247 258 276 291 294 289 279 261 247 231 246 235 229 221 217 187 202 184 153 127 150 150 89 30 106 222 220 255 295 278 302 343 303 267 267 283 281 289 296 67 81 70
236 238 240 242 264 281 290 295 291 249 235 227 227 247 271 253 250 264 215 174 148 154 150 186 105 205 220 205 216 262 232 240 251 276 336 289 300 298 285 295 303 48 99 87 73
232 235 235 238 268 271 258 248 260 256 299 263 259 257 261 263 234 192 163 167 170 196 135 74 218 226 224 238 233 259 278 277 293 274 329 302 294 271 324 62 90 90 92 94 90
230 233 236 241 258 233 229 231 259 309 276 286 235 226 209 246 221 194 182 178 183 201 191 172 218 180 187 261 310 257 229 225 227 288 291 288 296 275 50 83 84 90 97 88 80
233 232 232 235 232 208 215 212 255 314 4 250 208 200 184 174 218 179 189 187 214 207 227 238 244 221 243 250 176 249 233 221 235 81 224 77 281 286 141 104 91 102 98 93 87
233 231 231 212 186 197 186 194 243 332 300 188 154 153 156 162 144 156 187 190 199 192 120 247 179 172 177 220 165 217 52 260 209 202 14 268 151 261 117 163 141 116 101 90 85
236 236 227 207 202 204 214 216 190 72 244 176 140 169 136 189 167 127 151 189 234 113 213 219 158 183 210 236 183 124 44 309 66 111 284 224 187 270 196 182 135 111 99 92 83
232 238 219 208 210 209 203 174 151 218 226 178 186 161 197 178 180 172 160 182 164 114 248 260 203 204 188 163 26 83 77 319 0 39 227 286 240 254 22 97 133 121 108 97 87
211 211 204 195 200 188 180 161 218 205 217 134 135 165 187 158 195 186 165 235 258 206 207 202 320 153 150 168 187 178 162 162 233 222 273 321 259 341 50 91 107 110 108 100 84
193 185 188 190 189 183 168 206 205 206 180 148 117 158 220 221 165 148 208 193 217 180 182 186 243 22 64 148 146 180 182 172 117 2 268 231 260 98 91 93 106 115 113 105 92
186 162 173 177 179 180 195 224 205 170 63 99 191 179 200 227 169 181 197 180 170 164 154 175 321 242 189 107 24 153 172 74 22 210 232 266 248 207 166 141 129 123 122 137 143
170 150 174 165 165 134 198 245 272 257 78 148 224 246 199 191 183 204 210 262 148 138 104 122 127 249 114 188 184 79 253 254 152 166 199 248 260 174 149 153 143 151 170 201 209
167 121 185 167 145 193 204 189 207 174 170 210 168 205 175 73 264 213 220 180 158 144 145 181 160 212 219 249 166 195 228 182 166 241 237 187 267 139 142 149 151 195 244 234 226
150 134 177 185 193 205 213 192 230 182 178 179 196 192 185 188 224 203 181 348 141 111 157 168 187 14 332 20 38 149 170 134 122 110 233 231 259 204 141 174 232 249 244 219 202
152 145 166 211 221 177 201 214 221 205 169 190 194 195 164 218 229 224 137 193 96 113 122 107 151 169 217 163 121 282 288 71 132 148 223 241 273 274 278 267 279 256 240 204 190
168 203 176 194 210 214 173 210 207 197 194 195 221 188 165 212 233 214 170 105 46 146 74 123 192 203 256 334 111 229 267 281 198 241 219 263 261 264 287 294 191 184 162 179 198
166 161 185 187 191 194 205 218 210 203 164 197 202 182 184 199 189 204 134 169 188 207 139 25 204 80 313 263 260 259 260 261 255 251 247 251 261 271 270 201 181 189 184 193 203
207 204 172 190 175 185 213 210 201 167 62 176 200 162 148 132 117 115 110 116 131 157 142 140 130 89 267 233 47 305 245 240 238 235 229 233 247 184 261 216 170 166 183 207 248